{"data":{"norad_id":43491,"intl_designator":"2018-050A","name":"FENGYUN 2H","alt_names":[],"object_type":"PAYLOAD","status":"ACTIVE","operator":null,"country":"PRC","launch_date":"2018-06-05","launch_site_code":"XICLF","launch_vehicle":null,"mission":null,"orbit_class":"UNKNOWN","rcs_meters":null,"size_class":null,"mass_kg":null,"dimensions":null,"purposes":["comms","earth_obs"],"wikipedia_slug":null,"has_3d_model":false,"image_url":null,"decayed_at":null,"tle_current":{"epoch":"2026-05-25T02:24:37.983168Z","epoch_age_seconds":73348,"freshness":"FRESH","line1":"1 43491U 18050A   26145.10043962 -.00000132  00000+0  00000+0 0  9993","line2":"2 43491   2.9745  79.3346 0001591 145.4496 133.5023  1.00271877 29204","mean_motion":1.00271877,"eccentricity":0.0001591,"inclination_deg":2.9745,"raan_deg":79.3346,"arg_perigee_deg":145.4496,"mean_anomaly_deg":133.5023,"bstar":0,"rev_number":2920,"period_min":1436.0955864026,"perigee_km":35779.860765519,"apogee_km":35793.277575022,"semimajor_km":42164.706170271,"source":"CELESTRAK","updated_at":"2026-05-25T13:38:14.055034Z"}}}